ARG1422 SAEZ-SPJC

Flight info

Callsign ARG1422
Flight time 4h 13m
Altitude 32000
Route BIVAM3A BIVAM UW8 ERE UT680 TUC UL550 ALGAR/N0467F340 UL550 SCO
Aircraft B738/M-SDE2E3FGHIRWXY/LB1

Departure

Time 2026-04-30 00:23
Airport Ezeiza International Airport - Ministro Pistarini (SAEZ)

Arrival

Time 2026-04-30 04:37
Airport Jorge Chávez International Airport (SPJC)
Time Latitude Longitude Altitude Speed Heading
2026-04-29 23:37 -34.81653 -58.54256 74 ft 0 kts 12°
2026-04-30 00:13 -34.81655 -58.54257 74 ft 2 kts 12°
2026-04-30 00:13 -34.81680 -58.54262 74 ft 4 kts
2026-04-30 00:14 -34.81707 -58.54264 64 ft 4 kts 357°
2026-04-30 00:14 -34.81734 -58.54260 67 ft 4 kts 347°
2026-04-30 00:14 -34.81759 -58.54250 74 ft 4 kts 331°
2026-04-30 00:14 -34.81779 -58.54230 74 ft 4 kts 293°
2026-04-30 00:15 -34.81781 -58.54221 74 ft 1 kts 279°
2026-04-30 00:17 -34.81781 -58.54225 74 ft 2 kts 279°
2026-04-30 00:17 -34.81773 -58.54283 74 ft 9 kts 279°
2026-04-30 00:17 -34.81764 -58.54359 74 ft 9 kts 278°
2026-04-30 00:18 -34.81755 -58.54435 72 ft 9 kts 277°
2026-04-30 00:18 -34.81751 -58.54508 65 ft 9 kts 270°
2026-04-30 00:18 -34.81760 -58.54585 69 ft 10 kts 255°
2026-04-30 00:18 -34.81779 -58.54687 65 ft 14 kts 264°
2026-04-30 00:19 -34.81767 -58.54824 70 ft 18 kts 282°
2026-04-30 00:19 -34.81739 -58.54980 71 ft 19 kts 282°
2026-04-30 00:19 -34.81711 -58.55132 70 ft 17 kts 282°
2026-04-30 00:19 -34.81694 -58.55244 74 ft 12 kts 269°
2026-04-30 00:20 -34.81725 -58.55322 75 ft 8 kts 221°
2026-04-30 00:20 -34.81747 -58.55336 75 ft 1 kts 200°
2026-04-30 00:20 -34.81753 -58.55339 75 ft 1 kts 195°
2026-04-30 00:20 -34.81754 -58.55339 75 ft 0 kts 194°
2026-04-30 00:21 -34.81756 -58.55339 75 ft 2 kts 194°
2026-04-30 00:21 -34.81800 -58.55338 67 ft 11 kts 163°
2026-04-30 00:21 -34.81879 -58.55306 69 ft 10 kts 176°
2026-04-30 00:22 -34.81917 -58.55280 71 ft 6 kts 102°
2026-04-30 00:22 -34.81926 -58.55226 77 ft 6 kts 102°
2026-04-30 00:22 -34.81936 -58.55171 68 ft 11 kts 102°
2026-04-30 00:22 -34.82012 -58.54746 82 ft 93 kts 102°
2026-04-30 00:23 -34.82205 -58.53672 80 ft 165 kts 102°
2026-04-30 00:23 -34.82484 -58.52137 528 ft 193 kts 102°
2026-04-30 00:23 -34.82864 -58.50612 1712 ft 186 kts 123°
2026-04-30 00:23 -34.83917 -58.49608 2313 ft 211 kts 165°
2026-04-30 00:24 -34.85430 -58.49153 2733 ft 238 kts 160°
2026-04-30 00:24 -34.86762 -58.47775 3052 ft 270 kts 126°
2026-04-30 00:24 -34.87515 -58.45694 3531 ft 270 kts 109°
2026-04-30 00:24 -34.88059 -58.43462 4154 ft 277 kts 113°
2026-04-30 00:25 -34.88833 -58.41327 5026 ft 275 kts 120°
2026-04-30 00:25 -34.89984 -58.39489 5686 ft 273 kts 147°
2026-04-30 00:25 -34.91699 -58.38638 5944 ft 267 kts 179°
2026-04-30 00:25 -34.93473 -58.39052 5996 ft 258 kts 209°
2026-04-30 00:26 -34.94981 -58.40252 6151 ft 261 kts 224°
2026-04-30 00:26 -34.95965 -58.42085 6818 ft 263 kts 253°
2026-04-30 00:26 -34.96099 -58.44300 7646 ft 266 kts 277°
2026-04-30 00:26 -34.95447 -58.46414 8393 ft 273 kts 301°
2026-04-30 00:27 -34.94072 -58.48060 9061 ft 284 kts 324°
2026-04-30 00:27 -34.92269 -58.49123 9757 ft 291 kts 333°
2026-04-30 00:27 -34.90372 -58.50039 10389 ft 298 kts 334°
2026-04-30 00:27 -34.88370 -58.50985 10568 ft 320 kts 334°
2026-04-30 00:28 -34.86224 -58.51995 10743 ft 341 kts 334°
2026-04-30 00:28 -34.83949 -58.53072 10901 ft 360 kts 334°
2026-04-30 00:28 -34.81573 -58.54201 11237 ft 372 kts 334°
2026-04-30 00:28 -34.79968 -58.54965 11604 ft 375 kts 334°
2026-04-30 00:29 -34.77546 -58.56118 12322 ft 374 kts 333°
2026-04-30 00:29 -34.75116 -58.57282 12965 ft 377 kts 333°
2026-04-30 00:29 -34.72660 -58.58461 13506 ft 381 kts 333°
2026-04-30 00:29 -34.69375 -58.60037 14320 ft 384 kts 333°
2026-04-30 00:30 -34.67692 -58.60846 14718 ft 385 kts 333°
2026-04-30 00:30 -34.65224 -58.62037 15270 ft 388 kts 332°
2026-04-30 00:30 -34.62708 -58.63249 15838 ft 391 kts 332°
2026-04-30 00:30 -34.60172 -58.64470 16402 ft 393 kts 332°
2026-04-30 00:31 -34.57626 -58.65695 16916 ft 396 kts 332°
2026-04-30 00:31 -34.55050 -58.66932 17427 ft 399 kts 332°
2026-04-30 00:31 -34.52466 -58.68173 17932 ft 401 kts 332°
2026-04-30 00:31 -34.49865 -58.69422 18426 ft 404 kts 331°
2026-04-30 00:32 -34.47246 -58.70679 18884 ft 407 kts 331°
2026-04-30 00:32 -34.44601 -58.71948 19337 ft 409 kts 331°
2026-04-30 00:32 -34.41945 -58.73219 19802 ft 412 kts 331°
2026-04-30 00:32 -34.39271 -58.74499 20250 ft 414 kts 331°
2026-04-30 00:33 -34.36581 -58.75784 20675 ft 417 kts 331°
2026-04-30 00:33 -34.33866 -58.77082 21074 ft 420 kts 331°
2026-04-30 00:33 -34.31143 -58.78383 21457 ft 423 kts 331°
2026-04-30 00:33 -34.28398 -58.79693 21847 ft 425 kts 331°
2026-04-30 00:34 -34.25642 -58.81006 22232 ft 427 kts 330°
2026-04-30 00:34 -34.22866 -58.82328 22601 ft 429 kts 330°
2026-04-30 00:34 -34.20074 -58.83658 22937 ft 432 kts 330°
2026-04-30 00:34 -34.17263 -58.84996 23252 ft 435 kts 330°
2026-04-30 00:35 -34.14475 -58.86321 23610 ft 437 kts 330°
2026-04-30 00:35 -34.11633 -58.87671 23947 ft 439 kts 330°
2026-04-30 00:35 -34.08785 -58.89022 24270 ft 441 kts 330°
2026-04-30 00:35 -34.05909 -58.90388 24542 ft 444 kts 330°
2026-04-30 00:36 -34.03019 -58.91759 24797 ft 448 kts 330°
2026-04-30 00:36 -34.00111 -58.93137 25073 ft 450 kts 330°
2026-04-30 00:36 -33.97192 -58.94546 25296 ft 452 kts 327°
2026-04-30 00:36 -33.94435 -58.96301 25485 ft 446 kts 320°
2026-04-30 00:37 -33.91805 -58.98288 25757 ft 447 kts 319°
2026-04-30 00:37 -33.89164 -59.00281 25988 ft 450 kts 319°
2026-04-30 00:37 -33.86498 -59.02275 26220 ft 452 kts 319°
2026-04-30 00:37 -33.83841 -59.04242 26444 ft 455 kts 319°
2026-04-30 00:38 -33.81135 -59.06229 26637 ft 458 kts 319°
2026-04-30 00:38 -33.78401 -59.08227 26841 ft 460 kts 319°
2026-04-30 00:38 -33.75656 -59.10226 27058 ft 462 kts 319°
2026-04-30 00:38 -33.72899 -59.12232 27306 ft 464 kts 319°
2026-04-30 00:39 -33.70124 -59.14247 27532 ft 466 kts 319°
2026-04-30 00:39 -33.67351 -59.16258 27808 ft 466 kts 319°
2026-04-30 00:39 -33.64577 -59.18269 28084 ft 466 kts 319°
2026-04-30 00:39 -33.61801 -59.20280 28451 ft 464 kts 319°
2026-04-30 00:40 -33.59053 -59.22262 28935 ft 460 kts 318°
2026-04-30 00:40 -33.53505 -59.26281 29086 ft 470 kts 318°
2026-04-30 00:40 -33.50704 -59.28308 29370 ft 469 kts 318°
2026-04-30 00:41 -33.47912 -59.30327 29701 ft 468 kts 318°
2026-04-30 00:41 -33.45119 -59.32343 30000 ft 468 kts 317°
2026-04-30 00:41 -33.42329 -59.34356 30211 ft 469 kts 317°
2026-04-30 00:41 -33.39528 -59.36379 30486 ft 469 kts 317°
2026-04-30 00:42 -33.36739 -59.38392 30841 ft 467 kts 317°
2026-04-30 00:42 -33.33975 -59.40394 31251 ft 463 kts 317°
2026-04-30 00:42 -33.31246 -59.42408 31556 ft 460 kts 316°
2026-04-30 00:42 -33.28558 -59.44415 31765 ft 461 kts 316°
2026-04-30 00:43 -33.25834 -59.46454 31947 ft 462 kts 316°
2026-04-30 00:43 -33.20379 -59.50527 31998 ft 462 kts 317°
2026-04-30 00:44 -33.14935 -59.54574 32000 ft 460 kts 317°
2026-04-30 00:44 -33.09506 -59.58587 31999 ft 458 kts 317°
2026-04-30 00:45 -33.04104 -59.62578 31988 ft 456 kts 317°
2026-04-30 00:45 -32.98715 -59.66571 32015 ft 456 kts 317°
2026-04-30 00:46 -32.93317 -59.70549 32011 ft 457 kts 317°
2026-04-30 00:46 -32.87897 -59.74537 32011 ft 458 kts 317°
2026-04-30 00:47 -32.82495 -59.78508 32013 ft 460 kts 317°
2026-04-30 00:47 -32.77039 -59.82513 32008 ft 461 kts 317°
2026-04-30 00:48 -32.71569 -59.86521 32011 ft 463 kts 317°
2026-04-30 00:48 -32.66069 -59.90546 32010 ft 463 kts 317°
2026-04-30 00:49 -32.60572 -59.94563 32010 ft 464 kts 318°
2026-04-30 00:49 -32.55111 -59.98548 32019 ft 464 kts 318°
2026-04-30 00:50 -32.49610 -60.02554 32012 ft 464 kts 318°
2026-04-30 00:50 -32.44110 -60.06556 32018 ft 463 kts 318°
2026-04-30 00:51 -32.38623 -60.10542 32019 ft 463 kts 318°
2026-04-30 00:51 -32.33133 -60.14525 32018 ft 462 kts 318°
2026-04-30 00:52 -32.27657 -60.18492 32021 ft 461 kts 318°
2026-04-30 00:52 -32.22178 -60.22456 32017 ft 461 kts 318°
2026-04-30 00:53 -32.16706 -60.26409 32022 ft 460 kts 318°
2026-04-30 00:53 -32.11274 -60.30326 32017 ft 460 kts 318°
2026-04-30 00:54 -32.05805 -60.34266 32018 ft 460 kts 318°
2026-04-30 00:54 -32.00337 -60.38201 32021 ft 461 kts 318°
2026-04-30 00:55 -31.94858 -60.42137 32014 ft 461 kts 319°
2026-04-30 00:55 -31.86633 -60.48034 32017 ft 462 kts 319°
2026-04-30 00:56 -31.81141 -60.51971 32021 ft 463 kts 319°
2026-04-30 00:56 -31.75638 -60.55902 32019 ft 463 kts 319°
2026-04-30 00:57 -31.70166 -60.59807 32014 ft 463 kts 319°
2026-04-30 00:57 -31.64650 -60.63736 32013 ft 463 kts 319°
2026-04-30 00:58 -31.59139 -60.67660 32004 ft 464 kts 319°
2026-04-30 00:58 -31.53615 -60.71585 31998 ft 464 kts 319°
2026-04-30 00:59 -31.48100 -60.75500 32001 ft 463 kts 319°
2026-04-30 00:59 -31.42591 -60.79404 31999 ft 463 kts 320°
2026-04-30 01:00 -31.37087 -60.83301 31999 ft 462 kts 320°
2026-04-30 01:00 -31.31580 -60.87193 31999 ft 462 kts 320°
2026-04-30 01:01 -31.26107 -60.91056 32002 ft 462 kts 320°
2026-04-30 01:01 -31.20604 -60.94937 32000 ft 462 kts 320°
2026-04-30 01:02 -31.15098 -60.98814 32001 ft 462 kts 320°
2026-04-30 01:02 -31.09581 -61.02692 31988 ft 462 kts 320°
2026-04-30 01:03 -31.04111 -61.06533 32005 ft 462 kts 320°
2026-04-30 01:03 -30.98662 -61.10491 31999 ft 461 kts 319°
2026-04-30 01:04 -30.93266 -61.14551 32000 ft 461 kts 319°
2026-04-30 01:04 -30.87869 -61.18604 32002 ft 462 kts 319°
2026-04-30 01:05 -30.82453 -61.22645 31997 ft 462 kts 319°
2026-04-30 01:05 -30.77063 -61.26650 31997 ft 463 kts 319°
2026-04-30 01:06 -30.71640 -61.30670 32002 ft 462 kts 319°
2026-04-30 01:06 -30.66213 -61.34691 32001 ft 462 kts 319°
2026-04-30 01:07 -30.60784 -61.38710 32011 ft 462 kts 320°
2026-04-30 01:07 -30.55364 -61.42711 32009 ft 461 kts 320°
2026-04-30 01:08 -30.49937 -61.46713 32012 ft 461 kts 320°
2026-04-30 01:08 -30.44552 -61.50680 32007 ft 461 kts 320°
2026-04-30 01:09 -30.39143 -61.54661 32008 ft 460 kts 320°
2026-04-30 01:09 -30.33741 -61.58631 32010 ft 459 kts 320°
2026-04-30 01:10 -30.28340 -61.62597 32012 ft 459 kts 320°
2026-04-30 01:10 -30.22941 -61.66553 32007 ft 459 kts 320°
2026-04-30 01:11 -30.17542 -61.70505 32012 ft 459 kts 320°
2026-04-30 01:11 -30.12146 -61.74451 32020 ft 459 kts 320°
2026-04-30 01:12 -30.06776 -61.78370 32015 ft 459 kts 321°
2026-04-30 01:12 -30.01375 -61.82310 32016 ft 459 kts 321°
2026-04-30 01:13 -29.95968 -61.86247 32022 ft 459 kts 321°
2026-04-30 01:13 -29.90554 -61.90187 32018 ft 459 kts 321°
2026-04-30 01:14 -29.85412 -61.94397 32015 ft 450 kts 310°
2026-04-30 01:14 -29.80941 -61.99402 32022 ft 448 kts 309°
2026-04-30 01:15 -29.76458 -62.04397 32016 ft 449 kts 309°
2026-04-30 01:15 -29.71933 -62.09365 32029 ft 449 kts 310°
2026-04-30 01:16 -29.67404 -62.14307 32039 ft 449 kts 310°
2026-04-30 01:16 -29.62858 -62.19255 32035 ft 449 kts 310°
2026-04-30 01:17 -29.58315 -62.24195 32036 ft 450 kts 310°
2026-04-30 01:17 -29.53771 -62.29134 32039 ft 449 kts 310°
2026-04-30 01:18 -29.49218 -62.34071 32039 ft 450 kts 310°
2026-04-30 01:18 -29.45439 -62.38166 32037 ft 450 kts 310°
2026-04-30 01:19 -29.40881 -62.43100 32035 ft 450 kts 310°
2026-04-30 01:19 -29.36333 -62.48016 32036 ft 449 kts 311°
2026-04-30 01:20 -29.31785 -62.52926 32037 ft 449 kts 311°
2026-04-30 01:20 -29.27269 -62.57797 32040 ft 449 kts 311°
2026-04-30 01:21 -29.22714 -62.62702 32035 ft 449 kts 311°
2026-04-30 01:21 -29.18162 -62.67599 32039 ft 448 kts 311°
2026-04-30 01:22 -29.13612 -62.72485 32033 ft 448 kts 311°
2026-04-30 01:22 -29.09096 -62.77334 32039 ft 447 kts 311°
2026-04-30 01:23 -29.04551 -62.82203 32037 ft 448 kts 311°
2026-04-30 01:23 -29.00005 -62.87068 32036 ft 448 kts 312°
2026-04-30 01:24 -28.95456 -62.91928 32038 ft 448 kts 312°
2026-04-30 01:24 -28.90905 -62.96781 32038 ft 448 kts 312°
2026-04-30 01:25 -28.86349 -63.01633 32038 ft 448 kts 312°
2026-04-30 01:25 -28.81788 -63.06486 32032 ft 448 kts 312°
2026-04-30 01:26 -28.77229 -63.11332 32029 ft 448 kts 312°
2026-04-30 01:26 -28.72663 -63.16179 32027 ft 448 kts 312°
2026-04-30 01:27 -28.68133 -63.20987 32030 ft 448 kts 313°
2026-04-30 01:27 -28.63563 -63.25824 32026 ft 449 kts 313°
2026-04-30 01:28 -28.58986 -63.30663 32029 ft 448 kts 313°
2026-04-30 01:28 -28.54409 -63.35499 32024 ft 449 kts 313°
2026-04-30 01:29 -28.49829 -63.40331 32029 ft 449 kts 313°
2026-04-30 01:29 -28.45251 -63.45155 32028 ft 449 kts 313°
2026-04-30 01:30 -28.40670 -63.49976 32028 ft 449 kts 313°
2026-04-30 01:30 -28.36105 -63.54774 32027 ft 448 kts 314°
2026-04-30 01:31 -28.31527 -63.59581 32025 ft 448 kts 314°
2026-04-30 01:31 -28.26949 -63.64382 32029 ft 448 kts 314°
2026-04-30 01:32 -28.22369 -63.69179 32027 ft 448 kts 314°
2026-04-30 01:32 -28.17814 -63.73943 32027 ft 448 kts 314°
2026-04-30 01:33 -28.13229 -63.78735 32029 ft 448 kts 314°
2026-04-30 01:33 -28.08641 -63.83525 32026 ft 448 kts 314°
2026-04-30 01:34 -28.04050 -63.88315 32031 ft 448 kts 314°
2026-04-30 01:34 -27.99455 -63.93121 32028 ft 449 kts 314°
2026-04-30 01:35 -27.94863 -63.97924 32019 ft 449 kts 314°
2026-04-30 01:35 -27.90303 -64.02689 32018 ft 449 kts 314°
2026-04-30 01:36 -27.85708 -64.07479 32018 ft 449 kts 314°
2026-04-30 01:36 -27.81112 -64.12265 32020 ft 449 kts 314°
2026-04-30 01:37 -27.76514 -64.17049 32017 ft 449 kts 314°
2026-04-30 01:37 -27.71921 -64.21822 32020 ft 448 kts 314°
2026-04-30 01:38 -27.67325 -64.26591 32018 ft 448 kts 315°
2026-04-30 01:38 -27.62761 -64.31325 32019 ft 449 kts 315°
2026-04-30 01:39 -27.58162 -64.36085 32021 ft 449 kts 315°
2026-04-30 01:39 -27.53551 -64.40853 32017 ft 449 kts 315°
2026-04-30 01:40 -27.48941 -64.45615 32018 ft 450 kts 315°
2026-04-30 01:40 -27.44327 -64.50376 32025 ft 450 kts 315°
2026-04-30 01:41 -27.39708 -64.55138 32033 ft 450 kts 315°
2026-04-30 01:41 -27.35116 -64.59867 32026 ft 450 kts 315°
2026-04-30 01:42 -27.30471 -64.64602 32030 ft 451 kts 316°
2026-04-30 01:42 -27.25802 -64.69317 32027 ft 451 kts 316°
2026-04-30 01:43 -27.21128 -64.74040 32039 ft 452 kts 316°
2026-04-30 01:43 -27.16450 -64.78765 32036 ft 452 kts 316°
2026-04-30 01:44 -27.11772 -64.83488 32044 ft 452 kts 316°
2026-04-30 01:44 -27.07095 -64.88204 32050 ft 452 kts 316°
2026-04-30 01:45 -27.02408 -64.92925 32060 ft 452 kts 316°
2026-04-30 01:45 -26.97755 -64.97608 32066 ft 452 kts 316°
2026-04-30 01:46 -26.93066 -65.02319 32073 ft 453 kts 316°
2026-04-30 01:46 -26.88376 -65.07028 32070 ft 453 kts 316°
2026-04-30 01:47 -26.83669 -65.11738 32076 ft 453 kts 317°
2026-04-30 01:47 -26.78805 -65.16253 32074 ft 454 kts 320°
2026-04-30 01:48 -26.73870 -65.20681 32075 ft 455 kts 320°
2026-04-30 01:48 -26.68946 -65.25132 32072 ft 455 kts 320°
2026-04-30 01:49 -26.64038 -65.29601 32072 ft 455 kts 320°
2026-04-30 01:49 -26.59168 -65.34042 32081 ft 455 kts 320°
2026-04-30 01:50 -26.54264 -65.38507 32083 ft 455 kts 320°
2026-04-30 01:50 -26.49356 -65.42968 32086 ft 455 kts 320°
2026-04-30 01:51 -26.44432 -65.47438 32083 ft 455 kts 320°
2026-04-30 01:51 -26.39515 -65.51901 32086 ft 456 kts 320°
2026-04-30 01:52 -26.34598 -65.56357 32086 ft 456 kts 320°
2026-04-30 01:52 -26.29684 -65.60805 32091 ft 455 kts 320°
2026-04-30 01:53 -26.24788 -65.65233 32096 ft 455 kts 320°
2026-04-30 01:53 -26.19862 -65.69684 32091 ft 456 kts 320°
2026-04-30 01:54 -26.14929 -65.74134 32099 ft 456 kts 321°
2026-04-30 01:54 -26.09997 -65.78575 32099 ft 456 kts 321°
2026-04-30 01:55 -26.05059 -65.83015 32116 ft 456 kts 321°
2026-04-30 01:55 -26.00122 -65.87451 32117 ft 456 kts 321°
2026-04-30 01:56 -25.95183 -65.91884 32116 ft 457 kts 321°
2026-04-30 01:56 -25.90262 -65.96296 32121 ft 457 kts 321°
2026-04-30 01:57 -25.85306 -66.00736 32126 ft 457 kts 321°
2026-04-30 01:57 -25.80350 -66.05173 32125 ft 457 kts 321°
2026-04-30 01:58 -25.75387 -66.09608 32179 ft 460 kts 321°
2026-04-30 01:58 -25.72925 -66.11805 32418 ft 460 kts 321°
2026-04-30 01:58 -25.70436 -66.14025 32733 ft 458 kts 321°
2026-04-30 01:59 -25.65495 -66.18431 33422 ft 453 kts 321°
2026-04-30 01:59 -25.63030 -66.20627 33675 ft 452 kts 321°
2026-04-30 01:59 -25.60576 -66.22813 33865 ft 453 kts 321°
2026-04-30 02:00 -25.58128 -66.24994 34097 ft 451 kts 321°
2026-04-30 02:00 -25.53203 -66.29373 34142 ft 453 kts 321°
2026-04-30 02:01 -25.48349 -66.33687 34133 ft 448 kts 320°
2026-04-30 02:01 -25.43500 -66.37992 34133 ft 445 kts 320°
2026-04-30 02:02 -25.38685 -66.42263 34142 ft 442 kts 320°
2026-04-30 02:02 -25.33899 -66.46502 34143 ft 440 kts 320°
2026-04-30 02:03 -25.29117 -66.50735 34155 ft 440 kts 320°
2026-04-30 02:03 -25.24326 -66.54969 34148 ft 441 kts 320°
2026-04-30 02:04 -25.19555 -66.59183 34145 ft 443 kts 320°
2026-04-30 02:04 -25.14730 -66.63440 34151 ft 444 kts 320°
2026-04-30 02:05 -25.09894 -66.67701 34144 ft 446 kts 319°
2026-04-30 02:05 -25.05027 -66.71986 34153 ft 448 kts 319°
2026-04-30 02:06 -25.00158 -66.76266 34144 ft 447 kts 319°
2026-04-30 02:06 -24.95307 -66.80529 34141 ft 445 kts 319°
2026-04-30 02:07 -24.90465 -66.84777 34153 ft 443 kts 319°
2026-04-30 02:07 -24.85652 -66.88997 34156 ft 441 kts 319°
2026-04-30 02:08 -24.80884 -66.93173 34153 ft 440 kts 319°
2026-04-30 02:08 -24.76095 -66.97363 34155 ft 438 kts 319°
2026-04-30 02:09 -24.72121 -67.00837 34156 ft 437 kts 319°
2026-04-30 02:09 -24.67357 -67.04997 34155 ft 436 kts 319°
2026-04-30 02:10 -24.62611 -67.09140 34160 ft 435 kts 319°
2026-04-30 02:10 -24.57900 -67.13245 34155 ft 435 kts 319°
2026-04-30 02:11 -24.53134 -67.17395 34157 ft 434 kts 319°
2026-04-30 02:11 -24.48426 -67.21490 34158 ft 434 kts 319°
2026-04-30 02:12 -24.43695 -67.25601 34177 ft 434 kts 318°
2026-04-30 02:12 -24.38955 -67.29717 34169 ft 434 kts 318°
2026-04-30 02:13 -24.34215 -67.33828 34169 ft 434 kts 318°
2026-04-30 02:13 -24.29473 -67.37937 34175 ft 434 kts 318°
2026-04-30 02:14 -24.24736 -67.42036 34175 ft 434 kts 318°
2026-04-30 02:14 -24.20006 -67.46127 34193 ft 432 kts 318°
2026-04-30 02:15 -24.15286 -67.50205 34195 ft 432 kts 318°
2026-04-30 02:15 -24.10566 -67.54276 34188 ft 431 kts 318°
2026-04-30 02:16 -24.05846 -67.58265 34212 ft 431 kts 318°
2026-04-30 02:16 -24.01095 -67.62254 34190 ft 430 kts 319°
2026-04-30 02:17 -23.96360 -67.66232 34228 ft 429 kts 318°
2026-04-30 02:17 -23.91634 -67.70208 34220 ft 428 kts 318°
2026-04-30 02:18 -23.86925 -67.74162 34226 ft 426 kts 318°
2026-04-30 02:18 -23.82228 -67.78112 34232 ft 426 kts 318°
2026-04-30 02:19 -23.77526 -67.82061 34237 ft 427 kts 318°
2026-04-30 02:19 -23.72810 -67.86015 34232 ft 427 kts 318°
2026-04-30 02:20 -23.68099 -67.89960 34239 ft 427 kts 318°
2026-04-30 02:20 -23.63410 -67.93885 34237 ft 427 kts 318°
2026-04-30 02:21 -23.58661 -67.97857 34251 ft 428 kts 318°
2026-04-30 02:21 -23.53965 -68.01779 34259 ft 428 kts 318°
2026-04-30 02:22 -23.49232 -68.05728 34266 ft 428 kts 318°
2026-04-30 02:22 -23.44502 -68.09672 34265 ft 428 kts 318°
2026-04-30 02:23 -23.39777 -68.13608 34266 ft 427 kts 319°
2026-04-30 02:23 -23.35052 -68.17538 34241 ft 427 kts 319°
2026-04-30 02:24 -23.30328 -68.21467 34238 ft 427 kts 319°
2026-04-30 02:24 -23.25608 -68.25388 34241 ft 427 kts 319°
2026-04-30 02:25 -23.20892 -68.29302 34251 ft 426 kts 319°
2026-04-30 02:25 -23.16204 -68.33190 34254 ft 426 kts 319°
2026-04-30 02:26 -23.11495 -68.37093 34259 ft 425 kts 319°
2026-04-30 02:26 -23.06789 -68.40986 34268 ft 424 kts 319°
2026-04-30 02:27 -23.02092 -68.44872 34271 ft 424 kts 319°
2026-04-30 02:27 -22.97398 -68.48750 34279 ft 424 kts 319°
2026-04-30 02:28 -22.92701 -68.52627 34282 ft 424 kts 319°
2026-04-30 02:28 -22.88001 -68.56505 34288 ft 425 kts 319°
2026-04-30 02:29 -22.83318 -68.60358 34292 ft 425 kts 319°
2026-04-30 02:29 -22.78595 -68.64245 34301 ft 426 kts 319°
2026-04-30 02:30 -22.73869 -68.68132 34303 ft 426 kts 319°
2026-04-30 02:30 -22.69142 -68.72016 34303 ft 426 kts 319°
2026-04-30 02:31 -22.64417 -68.75893 34319 ft 426 kts 319°
2026-04-30 02:31 -22.59693 -68.79771 34309 ft 425 kts 319°
2026-04-30 02:32 -22.54977 -68.83637 34323 ft 425 kts 319°
2026-04-30 02:32 -22.50297 -68.87466 34324 ft 424 kts 319°
2026-04-30 02:33 -22.45707 -68.91457 34318 ft 423 kts 317°
2026-04-30 02:33 -22.41201 -68.95562 34321 ft 423 kts 316°
2026-04-30 02:34 -22.36691 -68.99655 34321 ft 423 kts 317°
2026-04-30 02:34 -22.32167 -69.03729 34322 ft 423 kts 317°
2026-04-30 02:35 -22.27631 -69.07792 34317 ft 424 kts 317°
2026-04-30 02:35 -22.23078 -69.11864 34301 ft 425 kts 317°
2026-04-30 02:36 -22.18524 -69.15934 34295 ft 425 kts 317°
2026-04-30 02:36 -22.13969 -69.20003 34287 ft 425 kts 317°
2026-04-30 02:37 -22.09448 -69.24038 34280 ft 425 kts 317°
2026-04-30 02:37 -22.04890 -69.28101 34270 ft 425 kts 317°
2026-04-30 02:38 -22.00326 -69.32166 34258 ft 425 kts 317°
2026-04-30 02:38 -21.95769 -69.36221 34251 ft 424 kts 317°
2026-04-30 02:39 -21.91210 -69.40275 34236 ft 424 kts 317°
2026-04-30 02:39 -21.86694 -69.44290 34221 ft 424 kts 317°
2026-04-30 02:40 -21.82143 -69.48331 34201 ft 423 kts 317°
2026-04-30 02:40 -21.77604 -69.52358 34195 ft 423 kts 317°
2026-04-30 02:41 -21.73066 -69.56379 34182 ft 422 kts 317°
2026-04-30 02:41 -21.68527 -69.60401 34162 ft 422 kts 317°
2026-04-30 02:42 -21.63991 -69.64415 34154 ft 422 kts 317°
2026-04-30 02:42 -21.59478 -69.68404 34136 ft 422 kts 317°
2026-04-30 02:43 -21.54935 -69.72417 34130 ft 422 kts 317°
2026-04-30 02:43 -21.50394 -69.76426 34117 ft 422 kts 317°
2026-04-30 02:44 -21.45846 -69.80436 34105 ft 423 kts 317°
2026-04-30 02:44 -21.41294 -69.84448 34083 ft 424 kts 317°
2026-04-30 02:45 -21.36732 -69.88465 34082 ft 424 kts 317°
2026-04-30 02:45 -21.32204 -69.92447 34065 ft 424 kts 318°
2026-04-30 02:46 -21.27641 -69.96457 34056 ft 424 kts 318°
2026-04-30 02:46 -21.23069 -70.00473 34047 ft 424 kts 318°
2026-04-30 02:47 -21.18508 -70.04476 34037 ft 424 kts 318°
2026-04-30 02:47 -21.13947 -70.08476 34025 ft 423 kts 318°
2026-04-30 02:48 -21.09387 -70.12471 34011 ft 423 kts 318°
2026-04-30 02:48 -21.04834 -70.16457 34010 ft 422 kts 318°
2026-04-30 02:49 -21.00296 -70.20427 33996 ft 421 kts 318°
2026-04-30 02:49 -20.95763 -70.24386 33987 ft 419 kts 318°
2026-04-30 02:50 -20.91276 -70.28302 33983 ft 418 kts 318°
2026-04-30 02:50 -20.86772 -70.32229 33980 ft 417 kts 318°
2026-04-30 02:51 -20.82274 -70.36147 33979 ft 416 kts 318°
2026-04-30 02:51 -20.77790 -70.40055 33970 ft 415 kts 318°
2026-04-30 02:52 -20.73308 -70.43957 33973 ft 415 kts 318°
2026-04-30 02:52 -20.68831 -70.47850 33976 ft 415 kts 318°
2026-04-30 02:53 -20.64375 -70.51723 33970 ft 415 kts 318°
2026-04-30 02:53 -20.59892 -70.55616 33972 ft 416 kts 318°
2026-04-30 02:54 -20.55403 -70.59512 33974 ft 416 kts 318°
2026-04-30 02:54 -20.50907 -70.63415 33972 ft 416 kts 318°
2026-04-30 02:55 -20.46405 -70.67321 33970 ft 417 kts 318°
2026-04-30 02:55 -20.41935 -70.71196 33961 ft 417 kts 318°
2026-04-30 02:56 -20.37428 -70.75098 33959 ft 418 kts 318°
2026-04-30 02:56 -20.32911 -70.79001 33960 ft 418 kts 318°
2026-04-30 02:57 -20.28388 -70.82905 33962 ft 417 kts 318°
2026-04-30 02:57 -20.24638 -70.86139 33966 ft 417 kts 318°
2026-04-30 02:58 -20.20129 -70.90027 33962 ft 417 kts 318°
2026-04-30 02:58 -20.15620 -70.93913 33961 ft 417 kts 318°
2026-04-30 02:59 -20.11111 -70.97791 33960 ft 416 kts 318°
2026-04-30 02:59 -20.06609 -71.01666 33962 ft 416 kts 318°
2026-04-30 03:00 -20.02105 -71.05541 33961 ft 416 kts 319°
2026-04-30 03:00 -19.97639 -71.09381 33973 ft 416 kts 319°
2026-04-30 03:01 -19.93128 -71.13252 33965 ft 415 kts 320°
2026-04-30 03:01 -19.88657 -71.17087 33957 ft 414 kts 320°
2026-04-30 03:02 -19.84178 -71.20926 33960 ft 414 kts 320°
2026-04-30 03:02 -19.79697 -71.24764 33954 ft 413 kts 320°
2026-04-30 03:03 -19.75222 -71.28594 33955 ft 413 kts 320°
2026-04-30 03:03 -19.68514 -71.34329 33950 ft 412 kts 320°
2026-04-30 03:04 -19.64068 -71.38128 33976 ft 412 kts 320°
2026-04-30 03:04 -19.59607 -71.41936 33994 ft 412 kts 320°
2026-04-30 03:05 -19.55142 -71.45744 34004 ft 412 kts 320°
2026-04-30 03:05 -19.50662 -71.49563 34001 ft 413 kts 320°
2026-04-30 03:06 -19.46174 -71.53386 34004 ft 414 kts 320°
2026-04-30 03:06 -19.41678 -71.57213 34012 ft 415 kts 320°
2026-04-30 03:07 -19.37172 -71.61045 33997 ft 415 kts 320°
2026-04-30 03:07 -19.32691 -71.64855 33992 ft 416 kts 320°
2026-04-30 03:08 -19.28174 -71.68691 33970 ft 416 kts 320°
2026-04-30 03:08 -19.23656 -71.72525 33970 ft 416 kts 320°
2026-04-30 03:09 -19.19135 -71.76360 33960 ft 416 kts 320°
2026-04-30 03:09 -19.14627 -71.80181 33957 ft 415 kts 320°
2026-04-30 03:10 -19.10113 -71.84002 33958 ft 415 kts 320°
2026-04-30 03:10 -19.05604 -71.87818 33956 ft 415 kts 320°
2026-04-30 03:11 -19.01099 -71.91628 33955 ft 415 kts 320°
2026-04-30 03:11 -18.96625 -71.95409 33951 ft 414 kts 320°
2026-04-30 03:12 -18.92122 -71.99211 33950 ft 414 kts 321°
2026-04-30 03:12 -18.87622 -72.03008 33954 ft 414 kts 320°
2026-04-30 03:13 -18.83116 -72.06807 33951 ft 414 kts 321°
2026-04-30 03:13 -18.78615 -72.10600 33957 ft 413 kts 321°
2026-04-30 03:14 -18.74119 -72.14387 33955 ft 413 kts 321°
2026-04-30 03:14 -18.69650 -72.18147 33947 ft 413 kts 321°
2026-04-30 03:15 -18.65157 -72.21926 33948 ft 413 kts 321°
2026-04-30 03:15 -18.60657 -72.25707 33941 ft 413 kts 321°
2026-04-30 03:16 -18.56157 -72.29488 33939 ft 414 kts 321°
2026-04-30 03:16 -18.51640 -72.33277 33955 ft 414 kts 321°
2026-04-30 03:17 -18.47132 -72.37058 33947 ft 414 kts 321°
2026-04-30 03:17 -18.42618 -72.40841 33954 ft 414 kts 321°
2026-04-30 03:18 -18.38104 -72.44622 33958 ft 414 kts 321°
2026-04-30 03:18 -18.33595 -72.48395 33951 ft 414 kts 321°
2026-04-30 03:19 -18.29118 -72.52142 33954 ft 414 kts 321°
2026-04-30 03:19 -18.24610 -72.55911 33951 ft 414 kts 321°
2026-04-30 03:20 -18.20098 -72.59682 33962 ft 414 kts 321°
2026-04-30 03:20 -18.15589 -72.63447 33952 ft 413 kts 321°
2026-04-30 03:21 -18.11081 -72.67211 33962 ft 413 kts 321°
2026-04-30 03:21 -18.06572 -72.70968 33962 ft 413 kts 321°
2026-04-30 03:22 -18.02100 -72.74696 33962 ft 413 kts 321°
2026-04-30 03:22 -17.97600 -72.78447 33960 ft 413 kts 322°
2026-04-30 03:23 -17.93101 -72.82194 33963 ft 413 kts 322°
2026-04-30 03:23 -17.88597 -72.85941 33972 ft 413 kts 322°
2026-04-30 03:24 -17.84081 -72.89695 33973 ft 414 kts 322°
2026-04-30 03:24 -17.79566 -72.93447 33978 ft 414 kts 322°
2026-04-30 03:25 -17.75049 -72.97196 33982 ft 414 kts 322°
2026-04-30 03:25 -17.70528 -73.00947 33982 ft 415 kts 322°
2026-04-30 03:26 -17.66003 -73.04700 34010 ft 414 kts 322°
2026-04-30 03:26 -17.61490 -73.08440 34098 ft 412 kts 322°
2026-04-30 03:27 -17.57018 -73.12147 34107 ft 413 kts 322°
2026-04-30 03:27 -17.52509 -73.15877 34119 ft 414 kts 322°
2026-04-30 03:28 -17.47986 -73.19616 34121 ft 414 kts 322°
2026-04-30 03:28 -17.43459 -73.23358 34128 ft 414 kts 322°
2026-04-30 03:29 -17.38921 -73.27103 34131 ft 414 kts 322°
2026-04-30 03:29 -17.34389 -73.30845 34138 ft 415 kts 322°
2026-04-30 03:30 -17.29857 -73.34585 34144 ft 415 kts 322°
2026-04-30 03:30 -17.25348 -73.38303 34130 ft 416 kts 322°
2026-04-30 03:31 -17.20802 -73.42048 34102 ft 416 kts 322°
2026-04-30 03:31 -17.16245 -73.45800 34095 ft 417 kts 322°
2026-04-30 03:32 -17.11691 -73.49545 34087 ft 417 kts 322°
2026-04-30 03:32 -17.07131 -73.53294 34098 ft 416 kts 322°
2026-04-30 03:33 -17.02575 -73.57039 34094 ft 417 kts 322°
2026-04-30 03:33 -16.98007 -73.60790 34092 ft 417 kts 322°
2026-04-30 03:34 -16.93440 -73.64537 34097 ft 417 kts 322°
2026-04-30 03:34 -16.88899 -73.68264 34101 ft 418 kts 322°
2026-04-30 03:35 -16.84313 -73.72021 34103 ft 419 kts 322°
2026-04-30 03:35 -16.79718 -73.75784 34104 ft 420 kts 322°
2026-04-30 03:36 -16.75138 -73.79535 34105 ft 421 kts 323°
2026-04-30 03:36 -16.70526 -73.83308 34099 ft 422 kts 322°
2026-04-30 03:37 -16.65888 -73.87100 34089 ft 424 kts 323°
2026-04-30 03:37 -16.61239 -73.90901 34094 ft 425 kts 323°
2026-04-30 03:38 -16.56570 -73.94715 34096 ft 426 kts 323°
2026-04-30 03:38 -16.51893 -73.98524 34090 ft 427 kts 323°
2026-04-30 03:39 -16.47240 -74.02314 34095 ft 427 kts 323°
2026-04-30 03:39 -16.42554 -74.06131 34096 ft 428 kts 323°
2026-04-30 03:40 -16.37858 -74.09955 34084 ft 428 kts 323°
2026-04-30 03:40 -16.33165 -74.13772 34087 ft 428 kts 323°
2026-04-30 03:41 -16.28472 -74.17588 34153 ft 427 kts 323°
2026-04-30 03:41 -16.23831 -74.21359 34234 ft 425 kts 323°
2026-04-30 03:42 -16.19169 -74.25147 34255 ft 425 kts 323°
2026-04-30 03:42 -16.14497 -74.28938 34251 ft 426 kts 323°
2026-04-30 03:43 -16.09817 -74.32732 34250 ft 427 kts 323°
2026-04-30 03:43 -16.05130 -74.36530 34249 ft 427 kts 323°
2026-04-30 03:44 -16.00465 -74.40309 34248 ft 428 kts 323°
2026-04-30 03:44 -15.95767 -74.44114 34241 ft 428 kts 323°
2026-04-30 03:45 -15.91068 -74.47916 34242 ft 428 kts 323°
2026-04-30 03:45 -15.86361 -74.51720 34245 ft 428 kts 323°
2026-04-30 03:46 -15.81658 -74.55521 34234 ft 428 kts 323°
2026-04-30 03:46 -15.77747 -74.58680 34227 ft 428 kts 323°
2026-04-30 03:47 -15.73044 -74.62477 34228 ft 428 kts 323°
2026-04-30 03:47 -15.68341 -74.66271 34230 ft 427 kts 323°
2026-04-30 03:48 -15.63652 -74.70049 34218 ft 427 kts 323°
2026-04-30 03:48 -15.58963 -74.73826 34209 ft 426 kts 322°
2026-04-30 03:49 -15.54302 -74.77584 34208 ft 426 kts 322°
2026-04-30 03:49 -15.49613 -74.81356 34200 ft 426 kts 322°
2026-04-30 03:50 -15.44932 -74.85122 34200 ft 426 kts 322°
2026-04-30 03:50 -15.40245 -74.88889 34190 ft 425 kts 322°
2026-04-30 03:51 -15.35581 -74.92634 34182 ft 424 kts 322°
2026-04-30 03:51 -15.30910 -74.96385 34186 ft 424 kts 322°
2026-04-30 03:52 -15.26236 -75.00136 34173 ft 424 kts 322°
2026-04-30 03:52 -15.21569 -75.03878 34166 ft 425 kts 322°
2026-04-30 03:53 -15.16920 -75.07604 34159 ft 425 kts 322°
2026-04-30 03:53 -15.12242 -75.11351 34147 ft 425 kts 322°
2026-04-30 03:54 -15.07554 -75.15104 34144 ft 425 kts 322°
2026-04-30 03:54 -15.02866 -75.18855 34133 ft 426 kts 322°
2026-04-30 03:55 -14.98180 -75.22603 34126 ft 426 kts 322°
2026-04-30 03:55 -14.93486 -75.26353 34116 ft 427 kts 322°
2026-04-30 03:56 -14.88805 -75.30091 34103 ft 427 kts 322°
2026-04-30 03:56 -14.84102 -75.33846 34092 ft 427 kts 322°
2026-04-30 03:57 -14.79394 -75.37604 34082 ft 426 kts 322°
2026-04-30 03:57 -14.74701 -75.41346 34072 ft 426 kts 322°
2026-04-30 03:58 -14.70030 -75.45067 34062 ft 426 kts 322°
2026-04-30 03:58 -14.65339 -75.48802 34051 ft 425 kts 322°
2026-04-30 03:59 -14.60654 -75.52534 34031 ft 425 kts 322°
2026-04-30 03:59 -14.55969 -75.56263 34033 ft 425 kts 322°
2026-04-30 04:00 -14.51287 -75.59984 34020 ft 425 kts 322°
2026-04-30 04:00 -14.46597 -75.63711 34008 ft 425 kts 322°
2026-04-30 04:01 -14.41914 -75.67431 33995 ft 425 kts 322°
2026-04-30 04:01 -14.37225 -75.71155 33987 ft 425 kts 322°
2026-04-30 04:02 -14.32569 -75.74849 33975 ft 425 kts 322°
2026-04-30 04:02 -14.27879 -75.78568 33969 ft 425 kts 322°
2026-04-30 04:03 -14.23182 -75.82291 33960 ft 425 kts 322°
2026-04-30 04:03 -14.18485 -75.86011 33948 ft 426 kts 322°
2026-04-30 04:04 -14.13818 -75.89708 33945 ft 426 kts 322°
2026-04-30 04:04 -14.09121 -75.93425 33933 ft 426 kts 322°
2026-04-30 04:05 -14.04426 -75.97140 33932 ft 425 kts 322°
2026-04-30 04:05 -13.99739 -76.00844 33928 ft 425 kts 322°
2026-04-30 04:06 -13.95051 -76.04548 33922 ft 424 kts 322°
2026-04-30 04:06 -13.90364 -76.08249 33916 ft 425 kts 322°
2026-04-30 04:07 -13.85675 -76.11951 33920 ft 425 kts 322°
2026-04-30 04:08 -13.78628 -76.17511 33918 ft 425 kts 322°
2026-04-30 04:08 -13.73927 -76.21215 33918 ft 426 kts 323°
2026-04-30 04:09 -13.68992 -76.24591 33920 ft 426 kts 328°
2026-04-30 04:09 -13.63933 -76.27722 33913 ft 427 kts 328°
2026-04-30 04:10 -13.58854 -76.30889 33917 ft 428 kts 328°
2026-04-30 04:10 -13.53783 -76.34102 33918 ft 428 kts 327°
2026-04-30 04:11 -13.48715 -76.37336 33919 ft 430 kts 327°
2026-04-30 04:11 -13.43624 -76.40587 33817 ft 433 kts 327°
2026-04-30 04:11 -13.41038 -76.42238 33189 ft 439 kts 327°
2026-04-30 04:12 -13.38452 -76.43889 32484 ft 438 kts 327°
2026-04-30 04:12 -13.35863 -76.45540 31752 ft 438 kts 327°
2026-04-30 04:12 -13.33270 -76.47194 30991 ft 439 kts 328°
2026-04-30 04:12 -13.30670 -76.48851 30230 ft 440 kts 328°
2026-04-30 04:13 -13.28083 -76.50499 29712 ft 435 kts 328°
2026-04-30 04:13 -13.25522 -76.52130 29141 ft 431 kts 328°
2026-04-30 04:13 -13.22989 -76.53743 28585 ft 427 kts 328°
2026-04-30 04:13 -13.20474 -76.55344 28028 ft 424 kts 328°
2026-04-30 04:14 -13.17979 -76.56932 27486 ft 420 kts 328°
2026-04-30 04:14 -13.15535 -76.58487 26947 ft 417 kts 328°
2026-04-30 04:14 -13.13073 -76.60054 26425 ft 415 kts 328°
2026-04-30 04:14 -13.10628 -76.61609 25895 ft 413 kts 328°
2026-04-30 04:15 -13.08189 -76.63159 25369 ft 411 kts 328°
2026-04-30 04:15 -13.05739 -76.64715 24859 ft 418 kts 328°
2026-04-30 04:15 -13.03224 -76.66315 24316 ft 432 kts 328°
2026-04-30 04:15 -13.00675 -76.67936 23765 ft 430 kts 328°
2026-04-30 04:16 -12.98138 -76.69549 23219 ft 426 kts 328°
2026-04-30 04:16 -12.95631 -76.71141 22690 ft 422 kts 328°
2026-04-30 04:16 -12.93147 -76.72718 22154 ft 418 kts 328°
2026-04-30 04:16 -12.90680 -76.74284 21627 ft 415 kts 328°
2026-04-30 04:17 -12.88237 -76.75835 21104 ft 412 kts 328°
2026-04-30 04:17 -12.85813 -76.77374 20586 ft 409 kts 328°
2026-04-30 04:17 -12.83405 -76.78903 20067 ft 406 kts 328°
2026-04-30 04:17 -12.81014 -76.80421 19555 ft 403 kts 328°
2026-04-30 04:18 -12.78639 -76.81928 19038 ft 400 kts 329°
2026-04-30 04:18 -12.76282 -76.83422 18525 ft 397 kts 329°
2026-04-30 04:18 -12.73942 -76.84904 18013 ft 394 kts 329°
2026-04-30 04:18 -12.71640 -76.86363 17507 ft 391 kts 329°
2026-04-30 04:19 -12.69339 -76.87821 17169 ft 383 kts 329°
2026-04-30 04:19 -12.67130 -76.89221 16991 ft 363 kts 329°
2026-04-30 04:19 -12.65039 -76.90546 16830 ft 345 kts 329°
2026-04-30 04:19 -12.63023 -76.91824 16701 ft 338 kts 329°
2026-04-30 04:20 -12.61036 -76.93082 16562 ft 332 kts 329°
2026-04-30 04:20 -12.59075 -76.94322 16434 ft 330 kts 329°
2026-04-30 04:20 -12.57113 -76.95543 16206 ft 330 kts 331°
2026-04-30 04:20 -12.55085 -76.96643 15870 ft 327 kts 333°
2026-04-30 04:21 -12.53042 -76.97663 15519 ft 325 kts 335°
2026-04-30 04:21 -12.50991 -76.98632 15191 ft 324 kts 336°
2026-04-30 04:21 -12.48976 -76.99587 14840 ft 323 kts 335°
2026-04-30 04:21 -12.46953 -77.00574 14499 ft 322 kts 335°
2026-04-30 04:22 -12.44937 -77.01569 14161 ft 320 kts 335°
2026-04-30 04:22 -12.42934 -77.02555 13814 ft 318 kts 335°
2026-04-30 04:22 -12.40943 -77.03535 13485 ft 317 kts 334°
2026-04-30 04:22 -12.38970 -77.04510 13151 ft 315 kts 334°
2026-04-30 04:23 -12.36998 -77.05487 12811 ft 314 kts 334°
2026-04-30 04:23 -12.35036 -77.06460 12475 ft 312 kts 334°
2026-04-30 04:23 -12.33087 -77.07426 12142 ft 311 kts 334°
2026-04-30 04:23 -12.31142 -77.08391 11807 ft 310 kts 334°
2026-04-30 04:24 -12.29207 -77.09353 11473 ft 308 kts 334°
2026-04-30 04:24 -12.27279 -77.10310 11140 ft 307 kts 334°
2026-04-30 04:24 -12.25362 -77.11262 10806 ft 306 kts 334°
2026-04-30 04:24 -12.23454 -77.12210 10472 ft 304 kts 334°
2026-04-30 04:25 -12.21574 -77.13143 10165 ft 302 kts 334°
2026-04-30 04:25 -12.19711 -77.14068 10044 ft 293 kts 334°
2026-04-30 04:25 -12.17901 -77.14966 9861 ft 287 kts 334°
2026-04-30 04:25 -12.16106 -77.15857 9570 ft 286 kts 334°
2026-04-30 04:26 -12.14320 -77.16743 9286 ft 284 kts 334°
2026-04-30 04:26 -12.12548 -77.17621 9037 ft 281 kts 334°
2026-04-30 04:26 -12.10818 -77.18479 8922 ft 273 kts 334°
2026-04-30 04:26 -12.09127 -77.19318 8721 ft 269 kts 334°
2026-04-30 04:27 -12.07450 -77.20149 8442 ft 268 kts 334°
2026-04-30 04:27 -12.05778 -77.20978 8172 ft 267 kts 334°
2026-04-30 04:27 -12.04114 -77.21802 7902 ft 266 kts 334°
2026-04-30 04:27 -12.02453 -77.22626 7624 ft 265 kts 334°
2026-04-30 04:28 -12.00802 -77.23457 7349 ft 264 kts 333°
2026-04-30 04:28 -11.99166 -77.24310 7074 ft 263 kts 333°
2026-04-30 04:28 -11.97564 -77.25151 6808 ft 262 kts 333°
2026-04-30 04:28 -11.95942 -77.26000 6539 ft 261 kts 333°
2026-04-30 04:29 -11.94332 -77.26841 6266 ft 260 kts 333°
2026-04-30 04:29 -11.92721 -77.27680 5992 ft 260 kts 333°
2026-04-30 04:29 -11.91103 -77.28495 5722 ft 259 kts 334°
2026-04-30 04:29 -11.89481 -77.29290 5449 ft 258 kts 334°
2026-04-30 04:30 -11.87866 -77.30080 5183 ft 257 kts 334°
2026-04-30 04:30 -11.86215 -77.30734 4926 ft 251 kts 352°
2026-04-30 04:30 -11.84541 -77.30507 4707 ft 240 kts 25°
2026-04-30 04:30 -11.83244 -77.29546 4591 ft 224 kts 48°
2026-04-30 04:31 -11.82411 -77.28268 4493 ft 209 kts 63°
2026-04-30 04:31 -11.81773 -77.26940 4403 ft 208 kts 64°
2026-04-30 04:31 -11.81157 -77.25624 4248 ft 204 kts 64°
2026-04-30 04:31 -11.80704 -77.24286 4024 ft 197 kts 88°
2026-04-30 04:32 -11.81093 -77.23002 3855 ft 191 kts 128°
2026-04-30 04:32 -11.82061 -77.22107 3699 ft 193 kts 144°
2026-04-30 04:32 -11.83176 -77.21310 3482 ft 198 kts 145°
2026-04-30 04:32 -11.84313 -77.20514 3250 ft 198 kts 146°
2026-04-30 04:33 -11.85442 -77.19725 3032 ft 195 kts 146°
2026-04-30 04:33 -11.86608 -77.19059 2798 ft 190 kts 154°
2026-04-30 04:33 -11.87798 -77.18489 2610 ft 188 kts 155°
2026-04-30 04:33 -11.88980 -77.17919 2414 ft 188 kts 154°
2026-04-30 04:34 -11.90173 -77.17341 2234 ft 191 kts 154°
2026-04-30 04:34 -11.91377 -77.16751 2133 ft 192 kts 155°
2026-04-30 04:34 -11.92583 -77.16186 1846 ft 185 kts 155°
2026-04-30 04:34 -11.93700 -77.15640 1641 ft 169 kts 155°
2026-04-30 04:35 -11.94722 -77.15133 1386 ft 159 kts 155°
2026-04-30 04:35 -11.95706 -77.14645 1177 ft 157 kts 155°
2026-04-30 04:35 -11.96690 -77.14158 984 ft 159 kts 155°
2026-04-30 04:35 -11.97681 -77.13659 794 ft 158 kts 155°
2026-04-30 04:36 -11.98653 -77.13164 565 ft 158 kts 155°
2026-04-30 04:36 -11.99649 -77.12684 309 ft 156 kts 155°
2026-04-30 04:36 -12.00621 -77.12204 137 ft 154 kts 155°
2026-04-30 04:36 -12.01538 -77.11753 63 ft 124 kts 153°
2026-04-30 04:37 -12.02116 -77.11468 75 ft 61 kts 154°
2026-04-30 04:37 -12.02320 -77.11367 83 ft 41 kts 154°
2026-04-30 04:37 -12.02468 -77.11293 87 ft 13 kts 151°
2026-04-30 04:37 -12.02489 -77.11269 88 ft 2 kts 117°
2026-04-30 04:38 -12.02483 -77.11214 90 ft 5 kts 64°
2026-04-30 04:38 -12.02473 -77.11192 91 ft 5 kts 64°
2026-04-30 04:38 -12.02459 -77.11161 89 ft 5 kts 65°
2026-04-30 04:38 -12.02444 -77.11130 90 ft 5 kts 63°
2026-04-30 04:39 -12.02429 -77.11100 90 ft 5 kts 63°
2026-04-30 04:39 -12.02417 -77.11069 90 ft 5 kts 71°
2026-04-30 04:39 -12.02397 -77.11020 90 ft 10 kts 66°
2026-04-30 04:39 -12.02371 -77.10964 91 ft 9 kts 64°
2026-04-30 04:40 -12.02355 -77.10930 91 ft 0 kts 63°